Time,TemperatureF,DewpointF,PressureIn,WindDirection,WindDirectionDegrees,WindSpeedMPH,WindSpeedGustMPH,Humidity,HourlyPrecipIn,Conditions,Clouds,dailyrainin,SoftwareType,DateUTC
2013-12-19 00:00:00,28.1,28.1,29.80,ENE,76,0.0,0.0,100,0.00,,,0.00,VWS V14.01,2013-12-19 05:00:00,
2013-12-19 00:03:00,28.1,28.1,29.80,ENE,76,0.0,0.0,100,0.00,,,0.00,VWS V14.01,2013-12-19 05:03:00,
2013-12-19 00:08:00,28.1,28.1,29.80,ENE,76,0.0,0.0,100,0.00,,,0.00,VWS V14.01,2013-12-19 05:08:00,
2013-12-19 00:10:00,28.1,28.1,29.80,ENE,76,0.0,0.0,100,0.00,,,0.00,VWS V14.01,2013-12-19 05:10:00,
2013-12-19 00:13:00,27.8,27.8,29.77,ENE,76,0.0,0.0,100,0.00,,,0.00,VWS V14.01,2013-12-19 05:13:00,
2013-12-19 00:18:00,27.8,27.8,29.77,ENE,76,0.0,0.0,100,0.00,,,0.00,VWS V14.01,2013-12-19 05:18:00,
2013-12-19 00:20:00,27.6,27.6,29.77,ENE,76,0.0,0.0,100,0.00,,,0.00,VWS V14.01,2013-12-19 05:20:00,
2013-12-19 00:23:00,27.6,27.6,29.77,ENE,76,0.0,0.0,100,0.00,,,0.00,VWS V14.01,2013-12-19 05:23:00,
2013-12-19 00:28:00,27.8,27.8,29.77,ENE,76,0.0,0.0,100,0.00,,,0.00,VWS V14.01,2013-12-19 05:28:00,
2013-12-19 00:33:00,28.1,28.1,29.77,ENE,76,0.0,0.0,100,0.00,,,0.00,VWS V14.01,2013-12-19 05:33:00,
2013-12-19 00:38:00,28.1,28.1,29.77,ENE,76,0.0,0.0,100,0.00,,,0.00,VWS V14.01,2013-12-19 05:38:00,
2013-12-19 00:43:00,27.9,27.9,29.77,ENE,76,0.0,0.0,100,0.00,,,0.00,VWS V14.01,2013-12-19 05:43:00,
2013-12-19 00:48:00,27.8,27.8,29.77,ENE,76,0.0,0.0,100,0.00,,,0.00,VWS V14.01,2013-12-19 05:48:00,
2013-12-19 00:53:00,27.8,27.8,29.77,ENE,76,0.0,0.0,100,0.00,,,0.00,VWS V14.01,2013-12-19 05:53:00,
2013-12-19 00:58:00,27.4,27.4,29.77,ENE,76,0.0,0.0,100,0.00,,,0.00,VWS V14.01,2013-12-19 05:58:00,
2013-12-19 01:00:00,27.4,27.4,29.77,ENE,76,0.0,0.0,100,0.00,,,0.00,VWS V14.01,2013-12-19 06:00:00,
2013-12-19 01:03:00,27.4,27.4,29.77,ENE,76,0.0,0.0,100,0.00,,,0.00,VWS V14.01,2013-12-19 06:03:00,
2013-12-19 01:08:00,27.4,27.4,29.77,ENE,76,0.0,0.0,100,0.00,,,0.00,VWS V14.01,2013-12-19 06:08:00,
2013-12-19 01:10:00,27.4,27.4,29.77,ENE,76,0.0,0.0,100,0.00,,,0.00,VWS V14.01,2013-12-19 06:10:00,
2013-12-19 01:13:00,27.4,27.4,29.77,ENE,76,0.0,0.0,100,0.00,,,0.00,VWS V14.01,2013-12-19 06:13:00,
2013-12-19 01:18:00,27.4,27.4,29.77,ENE,76,0.0,0.0,100,0.00,,,0.00,VWS V14.01,2013-12-19 06:18:00,
2013-12-19 01:20:00,27.4,27.4,29.77,ENE,76,0.0,0.0,100,0.00,,,0.00,VWS V14.01,2013-12-19 06:20:00,
2013-12-19 01:23:00,27.2,27.2,29.77,ENE,76,0.0,0.0,100,0.00,,,0.00,VWS V14.01,2013-12-19 06:23:00,
2013-12-19 01:28:00,27.2,27.2,29.77,ENE,76,0.0,0.0,100,0.00,,,0.00,VWS V14.01,2013-12-19 06:28:00,
2013-12-19 01:30:00,27.2,27.2,29.77,ENE,76,0.0,0.0,100,0.00,,,0.00,VWS V14.01,2013-12-19 06:30:00,
2013-12-19 01:33:00,27.2,27.2,29.77,ENE,76,0.0,0.0,100,0.00,,,0.00,VWS V14.01,2013-12-19 06:33:00,
2013-12-19 01:38:00,27.2,27.2,29.77,ENE,76,0.0,0.0,100,0.00,,,0.00,VWS V14.01,2013-12-19 06:38:00,
2013-12-19 01:40:00,27.2,27.2,29.77,ENE,76,0.0,0.0,100,0.00,,,0.00,VWS V14.01,2013-12-19 06:40:00,
2013-12-19 01:43:00,27.2,27.2,29.77,ENE,76,0.0,0.0,100,0.00,,,0.00,VWS V14.01,2013-12-19 06:43:00,
2013-12-19 01:48:00,26.9,26.9,29.77,ENE,76,0.0,0.0,100,0.00,,,0.00,VWS V14.01,2013-12-19 06:48:00,
2013-12-19 01:53:00,26.9,26.9,29.77,ENE,76,0.0,0.0,100,0.00,,,0.00,VWS V14.01,2013-12-19 06:53:00,
2013-12-19 01:58:00,26.9,26.9,29.77,ENE,76,0.0,0.0,100,0.00,,,0.00,VWS V14.01,2013-12-19 06:58:00,
2013-12-19 02:00:00,26.9,26.9,29.77,ENE,76,0.0,0.0,100,0.00,,,0.00,VWS V14.01,2013-12-19 07:00:00,
2013-12-19 02:03:00,26.9,26.9,29.77,ENE,76,0.0,0.0,100,0.00,,,0.00,VWS V14.01,2013-12-19 07:03:00,
2013-12-19 02:08:00,26.9,26.9,29.77,ENE,76,0.0,0.0,100,0.00,,,0.00,VWS V14.01,2013-12-19 07:08:00,
2013-12-19 02:10:00,26.9,26.9,29.77,ENE,76,0.0,0.0,100,0.00,,,0.00,VWS V14.01,2013-12-19 07:10:00,
2013-12-19 02:18:00,26.5,26.5,29.77,ENE,76,0.0,0.0,100,0.00,,,0.00,VWS V14.01,2013-12-19 07:18:00,
2013-12-19 02:20:00,26.5,26.5,29.77,ENE,76,0.0,0.0,100,0.00,,,0.00,VWS V14.01,2013-12-19 07:20:00,
2013-12-19 02:28:00,26.5,26.5,29.77,ENE,76,0.0,0.0,100,0.00,,,0.00,VWS V14.01,2013-12-19 07:28:00,
2013-12-19 02:30:00,26.5,26.5,29.77,ENE,76,0.0,0.0,100,0.00,,,0.00,VWS V14.01,2013-12-19 07:30:00,
2013-12-19 02:33:00,26.5,26.5,29.77,ENE,76,0.0,0.0,100,0.00,,,0.00,VWS V14.01,2013-12-19 07:33:00,
2013-12-19 02:38:00,26.3,26.3,29.77,ENE,76,0.0,0.0,100,0.00,,,0.00,VWS V14.01,2013-12-19 07:38:00,
2013-12-19 02:40:00,26.3,26.3,29.77,ENE,76,0.0,0.0,100,0.00,,,0.00,VWS V14.01,2013-12-19 07:40:00,
2013-12-19 02:43:00,26.3,26.3,29.77,ENE,76,0.0,0.0,100,0.00,,,0.00,VWS V14.01,2013-12-19 07:43:00,
2013-12-19 02:48:00,26.5,26.5,29.77,ENE,76,0.0,0.0,100,0.00,,,0.00,VWS V14.01,2013-12-19 07:48:00,
2013-12-19 02:50:00,26.5,26.5,29.77,ENE,76,0.0,0.0,100,0.00,,,0.00,VWS V14.01,2013-12-19 07:50:00,
2013-12-19 02:53:00,26.5,26.5,29.77,ENE,76,0.0,0.0,100,0.00,,,0.00,VWS V14.01,2013-12-19 07:53:00,
2013-12-19 02:58:00,26.3,26.3,29.77,ENE,76,0.0,0.0,100,0.00,,,0.00,VWS V14.01,2013-12-19 07:58:00,
2013-12-19 03:00:00,26.3,26.3,29.77,ENE,76,0.0,0.0,100,0.00,,,0.00,VWS V14.01,2013-12-19 08:00:00,
2013-12-19 03:03:00,26.5,26.5,29.77,ENE,76,0.0,0.0,100,0.00,,,0.00,VWS V14.01,2013-12-19 08:03:00,
2013-12-19 03:08:00,26.3,26.3,29.77,ENE,76,0.0,0.0,100,0.00,,,0.00,VWS V14.01,2013-12-19 08:08:00,
2013-12-19 03:10:00,26.3,26.3,29.77,ENE,76,0.0,0.0,100,0.00,,,0.00,VWS V14.01,2013-12-19 08:10:00,
2013-12-19 03:13:00,26.1,26.1,29.77,ENE,76,0.0,0.0,100,0.00,,,0.00,VWS V14.01,2013-12-19 08:13:00,
2013-12-19 03:18:00,26.1,26.1,29.77,ENE,76,0.0,0.0,100,0.00,,,0.00,VWS V14.01,2013-12-19 08:18:00,
2013-12-19 03:20:00,26.1,26.1,29.77,ENE,76,0.0,0.0,100,0.00,,,0.00,VWS V14.01,2013-12-19 08:20:00,
2013-12-19 03:23:00,26.3,26.3,29.77,ENE,76,0.0,0.0,100,0.00,,,0.00,VWS V14.01,2013-12-19 08:23:00,
2013-12-19 03:28:00,26.3,26.3,29.77,ENE,76,0.0,0.0,100,0.00,,,0.00,VWS V14.01,2013-12-19 08:28:00,
2013-12-19 03:33:00,26.1,26.1,29.77,ENE,76,0.0,0.0,100,0.00,,,0.00,VWS V14.01,2013-12-19 08:33:00,
2013-12-19 03:38:00,26.1,26.1,29.77,ENE,76,0.0,0.0,100,0.00,,,0.00,VWS V14.01,2013-12-19 08:38:00,
2013-12-19 03:43:00,26.1,26.1,29.77,ENE,76,0.0,0.0,100,0.00,,,0.00,VWS V14.01,2013-12-19 08:43:00,
2013-12-19 03:48:00,26.1,26.1,29.77,ENE,76,0.0,0.0,100,0.00,,,0.00,VWS V14.01,2013-12-19 08:48:00,
2013-12-19 03:50:00,26.1,26.1,29.77,ENE,76,0.0,0.0,100,0.00,,,0.00,VWS V14.01,2013-12-19 08:50:00,
2013-12-19 03:53:00,26.1,26.1,29.77,ENE,76,0.0,0.0,100,0.00,,,0.00,VWS V14.01,2013-12-19 08:53:00,
2013-12-19 03:58:00,26.1,26.1,29.77,ENE,76,0.0,0.0,100,0.00,,,0.00,VWS V14.01,2013-12-19 08:58:00,
2013-12-19 04:00:00,26.1,26.1,29.77,ENE,76,0.0,0.0,100,0.00,,,0.00,VWS V14.01,2013-12-19 09:00:00,
2013-12-19 04:03:00,26.1,26.1,29.77,ENE,76,0.0,0.0,100,0.00,,,0.00,VWS V14.01,2013-12-19 09:03:00,
2013-12-19 04:08:00,26.0,26.0,29.77,ENE,76,0.0,0.0,100,0.00,,,0.00,VWS V14.01,2013-12-19 09:08:00,
2013-12-19 04:10:00,26.0,26.0,29.77,ENE,76,0.0,0.0,100,0.00,,,0.00,VWS V14.01,2013-12-19 09:10:00,
2013-12-19 04:13:00,26.0,26.0,29.77,ENE,76,0.0,0.0,100,0.00,,,0.00,VWS V14.01,2013-12-19 09:13:00,
2013-12-19 04:18:00,26.0,26.0,29.77,ENE,76,0.0,0.0,100,0.00,,,0.00,VWS V14.01,2013-12-19 09:18:00,
2013-12-19 04:20:00,26.0,26.0,29.77,ENE,76,0.0,0.0,100,0.00,,,0.00,VWS V14.01,2013-12-19 09:20:00,
2013-12-19 04:23:00,26.0,26.0,29.77,ENE,76,0.0,0.0,100,0.00,,,0.00,VWS V14.01,2013-12-19 09:23:00,
2013-12-19 04:28:00,26.0,26.0,29.77,ENE,76,0.0,0.0,100,0.00,,,0.00,VWS V14.01,2013-12-19 09:28:00,
2013-12-19 04:30:00,26.0,26.0,29.77,ENE,76,0.0,0.0,100,0.00,,,0.00,VWS V14.01,2013-12-19 09:30:00,
2013-12-19 04:34:00,26.0,26.0,29.77,ENE,76,0.0,0.0,100,0.00,,,0.00,VWS V14.01,2013-12-19 09:34:00,
2013-12-19 04:39:00,26.0,26.0,29.77,ENE,76,0.0,0.0,100,0.00,,,0.00,VWS V14.01,2013-12-19 09:39:00,
2013-12-19 04:40:00,26.0,26.0,29.77,ENE,76,0.0,0.0,100,0.00,,,0.00,VWS V14.01,2013-12-19 09:40:00,
2013-12-19 04:49:00,25.6,25.6,29.77,ENE,76,0.0,0.0,100,0.00,,,0.00,VWS V14.01,2013-12-19 09:49:00,
2013-12-19 04:54:00,25.4,25.4,29.77,ENE,76,0.0,0.0,100,0.00,,,0.00,VWS V14.01,2013-12-19 09:54:00,
2013-12-19 04:59:00,25.4,25.4,29.77,ENE,76,0.0,0.0,100,0.00,,,0.00,VWS V14.01,2013-12-19 09:59:00,
2013-12-19 05:00:00,25.4,25.4,29.77,ENE,76,0.0,0.0,100,0.00,,,0.00,VWS V14.01,2013-12-19 10:00:00,
2013-12-19 05:04:00,25.4,25.4,29.77,ENE,76,0.0,0.0,100,0.00,,,0.00,VWS V14.01,2013-12-19 10:04:00,
2013-12-19 05:09:00,25.6,25.6,29.77,ENE,76,0.0,0.0,100,0.00,,,0.00,VWS V14.01,2013-12-19 10:09:00,
2013-12-19 05:10:00,25.6,25.6,29.77,ENE,76,0.0,0.0,100,0.00,,,0.00,VWS V14.01,2013-12-19 10:10:00,
2013-12-19 05:19:00,25.6,25.6,29.77,ENE,76,0.0,0.0,100,0.00,,,0.00,VWS V14.01,2013-12-19 10:19:00,
2013-12-19 05:20:00,25.6,25.6,29.77,ENE,76,0.0,0.0,100,0.00,,,0.00,VWS V14.01,2013-12-19 10:20:00,
2013-12-19 05:24:00,25.8,25.8,29.77,ENE,76,0.0,0.0,100,0.00,,,0.00,VWS V14.01,2013-12-19 10:24:00,
2013-12-19 05:29:00,26.0,26.0,29.77,ENE,76,0.0,0.0,100,0.00,,,0.00,VWS V14.01,2013-12-19 10:29:00,
2013-12-19 05:34:00,26.0,26.0,29.77,ENE,76,0.0,0.0,100,0.00,,,0.00,VWS V14.01,2013-12-19 10:34:00,
2013-12-19 05:39:00,25.6,25.6,29.77,ENE,76,0.0,0.0,100,0.00,,,0.00,VWS V14.01,2013-12-19 10:39:00,
2013-12-19 05:40:00,25.6,25.6,29.77,ENE,76,0.0,0.0,100,0.00,,,0.00,VWS V14.01,2013-12-19 10:40:00,
2013-12-19 05:44:00,25.6,25.6,29.77,ENE,76,0.0,0.0,100,0.00,,,0.00,VWS V14.01,2013-12-19 10:44:00,
2013-12-19 05:49:00,25.6,25.6,29.77,ENE,76,0.0,0.0,100,0.00,,,0.00,VWS V14.01,2013-12-19 10:49:00,
2013-12-19 05:50:00,25.4,25.4,29.77,ENE,76,0.0,0.0,100,0.00,,,0.00,VWS V14.01,2013-12-19 10:50:00,
2013-12-19 05:54:00,25.4,25.4,29.77,ENE,76,0.0,0.0,100,0.00,,,0.00,VWS V14.01,2013-12-19 10:54:00,
2013-12-19 05:59:00,25.4,25.4,29.77,ENE,76,0.0,0.0,100,0.00,,,0.00,VWS V14.01,2013-12-19 10:59:00,
2013-12-19 06:00:00,25.4,25.4,29.77,ENE,76,0.0,0.0,100,0.00,,,0.00,VWS V14.01,2013-12-19 11:00:00,
2013-12-19 06:09:00,25.6,25.6,29.77,ENE,76,0.0,0.0,100,0.00,,,0.00,VWS V14.01,2013-12-19 11:09:00,
2013-12-19 06:14:00,25.6,25.6,29.77,ENE,76,0.0,0.0,100,0.00,,,0.00,VWS V14.01,2013-12-19 11:14:00,
2013-12-19 06:19:00,25.8,25.8,29.77,ENE,76,0.0,0.0,100,0.00,,,0.00,VWS V14.01,2013-12-19 11:19:00,
2013-12-19 06:20:00,25.8,25.8,29.77,ENE,76,0.0,0.0,100,0.00,,,0.00,VWS V14.01,2013-12-19 11:20:00,
2013-12-19 06:24:00,25.8,25.8,29.77,ENE,76,0.0,0.0,100,0.00,,,0.00,VWS V14.01,2013-12-19 11:24:00,
2013-12-19 06:29:00,25.8,25.8,29.77,ENE,76,0.0,0.0,100,0.00,,,0.00,VWS V14.01,2013-12-19 11:29:00,
2013-12-19 06:30:00,25.8,25.8,29.77,ENE,76,0.0,0.0,100,0.00,,,0.00,VWS V14.01,2013-12-19 11:30:00,
2013-12-19 06:34:00,25.4,25.4,29.77,ENE,76,0.0,0.0,100,0.00,,,0.00,VWS V14.01,2013-12-19 11:34:00,
2013-12-19 06:39:00,25.4,25.4,29.77,ENE,76,0.0,0.0,100,0.00,,,0.00,VWS V14.01,2013-12-19 11:39:00,
2013-12-19 06:40:00,25.2,25.2,29.77,ENE,76,0.0,0.0,100,0.00,,,0.00,VWS V14.01,2013-12-19 11:40:00,
2013-12-19 06:49:00,25.1,25.1,29.77,ENE,76,0.0,0.0,100,0.00,,,0.00,VWS V14.01,2013-12-19 11:49:00,
2013-12-19 06:54:00,25.1,25.1,29.80,ENE,76,0.0,0.0,100,0.00,,,0.00,VWS V14.01,2013-12-19 11:54:00,
2013-12-19 06:59:00,25.1,25.1,29.80,ENE,76,0.0,0.0,100,0.00,,,0.00,VWS V14.01,2013-12-19 11:59:00,
2013-12-19 07:00:00,25.1,25.1,29.80,ENE,76,0.0,0.0,100,0.00,,,0.00,VWS V14.01,2013-12-19 12:00:00,
2013-12-19 07:04:00,25.1,25.1,29.80,ENE,76,0.0,0.0,100,0.00,,,0.00,VWS V14.01,2013-12-19 12:04:00,
2013-12-19 07:09:00,25.1,25.1,29.80,ENE,76,0.0,0.0,100,0.00,,,0.00,VWS V14.01,2013-12-19 12:09:00,
2013-12-19 07:10:00,25.1,25.1,29.80,ENE,76,0.0,0.0,100,0.00,,,0.00,VWS V14.01,2013-12-19 12:10:00,
2013-12-19 07:14:00,25.1,25.1,29.80,ENE,76,0.0,0.0,100,0.00,,,0.00,VWS V14.01,2013-12-19 12:14:00,
2013-12-19 07:19:00,25.1,25.1,29.80,ENE,76,0.0,0.0,100,0.00,,,0.00,VWS V14.01,2013-12-19 12:19:00,
2013-12-19 07:20:00,25.2,25.2,29.80,ENE,76,0.0,0.0,100,0.00,,,0.00,VWS V14.01,2013-12-19 12:20:00,
2013-12-19 07:24:00,25.2,25.2,29.80,ENE,76,0.0,0.0,100,0.00,,,0.00,VWS V14.01,2013-12-19 12:24:00,
2013-12-19 07:29:00,25.2,25.2,29.80,ENE,76,0.0,0.0,100,0.00,,,0.00,VWS V14.01,2013-12-19 12:29:00,
2013-12-19 07:30:00,25.2,25.2,29.80,ENE,76,0.0,0.0,100,0.00,,,0.00,VWS V14.01,2013-12-19 12:30:00,
2013-12-19 07:34:00,25.1,25.1,29.80,ENE,76,0.0,0.0,100,0.00,,,0.00,VWS V14.01,2013-12-19 12:34:00,
2013-12-19 07:39:00,25.1,25.1,29.80,ENE,76,0.0,0.0,100,0.00,,,0.00,VWS V14.01,2013-12-19 12:39:00,
2013-12-19 07:44:00,25.1,25.1,29.80,ENE,76,0.0,0.0,100,0.00,,,0.00,VWS V14.01,2013-12-19 12:44:00,
2013-12-19 07:49:00,24.9,24.9,29.80,ENE,76,0.0,0.0,100,0.00,,,0.00,VWS V14.01,2013-12-19 12:49:00,
2013-12-19 07:50:00,24.7,24.7,29.80,ENE,76,0.0,0.0,100,0.00,,,0.00,VWS V14.01,2013-12-19 12:50:00,
2013-12-19 07:54:00,24.7,24.7,29.80,ENE,76,0.0,0.0,100,0.00,,,0.00,VWS V14.01,2013-12-19 12:54:00,
2013-12-19 07:59:00,24.9,24.9,29.80,ENE,76,0.0,0.0,100,0.00,,,0.00,VWS V14.01,2013-12-19 12:59:00,
2013-12-19 08:00:00,24.9,24.9,29.80,ENE,76,0.0,0.0,100,0.00,,,0.00,VWS V14.01,2013-12-19 13:00:00,
2013-12-19 08:04:00,24.9,24.9,29.80,ENE,76,0.0,0.0,100,0.00,,,0.00,VWS V14.01,2013-12-19 13:04:00,
2013-12-19 08:09:00,24.9,24.9,29.80,ENE,76,0.0,0.0,100,0.00,,,0.00,VWS V14.01,2013-12-19 13:09:00,
2013-12-19 08:10:00,24.9,24.9,29.80,ENE,76,0.0,0.0,100,0.00,,,0.00,VWS V14.01,2013-12-19 13:10:00,
2013-12-19 08:14:00,25.1,25.1,29.80,ENE,76,0.0,0.0,100,0.00,,,0.00,VWS V14.01,2013-12-19 13:14:00,
2013-12-19 08:19:00,25.1,25.1,29.80,ENE,76,0.0,0.0,100,0.00,,,0.00,VWS V14.01,2013-12-19 13:19:00,
2013-12-19 08:24:00,25.6,25.6,29.80,ENE,76,0.0,0.0,100,0.00,,,0.00,VWS V14.01,2013-12-19 13:24:00,
2013-12-19 08:29:00,25.6,25.6,29.80,ENE,76,0.0,0.0,100,0.00,,,0.00,VWS V14.01,2013-12-19 13:29:00,
2013-12-19 08:30:00,25.6,25.6,29.80,ENE,76,0.0,0.0,100,0.00,,,0.00,VWS V14.01,2013-12-19 13:30:00,
2013-12-19 08:39:00,26.5,26.5,29.80,ENE,76,0.0,0.0,100,0.00,,,0.00,VWS V14.01,2013-12-19 13:39:00,
2013-12-19 08:44:00,27.0,27.0,29.80,ENE,76,0.0,0.0,100,0.00,,,0.00,VWS V14.01,2013-12-19 13:44:00,
2013-12-19 08:49:00,29.9,29.9,29.80,ENE,76,0.0,0.0,100,0.00,,,0.00,VWS V14.01,2013-12-19 13:49:00,
2013-12-19 08:50:00,29.9,29.9,29.80,ENE,76,0.0,0.0,100,0.00,,,0.00,VWS V14.01,2013-12-19 13:50:00,
2013-12-19 08:54:00,30.5,30.5,29.80,ENE,76,0.0,0.0,100,0.00,,,0.00,VWS V14.01,2013-12-19 13:54:00,
2013-12-19 08:59:00,30.5,30.5,29.80,ENE,76,0.0,0.0,100,0.00,,,0.00,VWS V14.01,2013-12-19 13:59:00,
2013-12-19 09:00:00,33.9,33.9,29.80,ENE,76,0.0,0.0,100,0.00,,,0.00,VWS V14.01,2013-12-19 14:00:00,
2013-12-19 09:04:00,33.9,33.9,29.80,ENE,76,0.0,0.0,100,0.00,,,0.00,VWS V14.01,2013-12-19 14:04:00,
2013-12-19 09:09:00,35.7,35.7,29.80,ENE,76,0.0,0.0,100,0.00,,,0.00,VWS V14.01,2013-12-19 14:09:00,
2013-12-19 09:10:00,35.7,35.7,29.80,ENE,76,0.0,0.0,100,0.00,,,0.00,VWS V14.01,2013-12-19 14:10:00,
2013-12-19 09:14:00,36.8,36.8,29.80,ENE,76,0.0,0.0,100,0.00,,,0.00,VWS V14.01,2013-12-19 14:14:00,
2013-12-19 09:19:00,38.2,38.2,29.80,ENE,76,0.0,0.0,100,0.00,,,0.00,VWS V14.01,2013-12-19 14:19:00,
2013-12-19 09:20:00,38.2,38.2,29.80,ENE,76,0.0,0.0,100,0.00,,,0.00,VWS V14.01,2013-12-19 14:20:00,
2013-12-19 09:24:00,39.8,39.8,29.80,ENE,76,0.0,0.0,100,0.00,,,0.00,VWS V14.01,2013-12-19 14:24:00,
2013-12-19 09:29:00,39.8,39.8,29.80,ENE,76,0.0,0.0,100,0.00,,,0.00,VWS V14.01,2013-12-19 14:29:00,
2013-12-19 09:34:00,41.4,41.4,29.80,ENE,76,0.0,0.0,100,0.00,,,0.00,VWS V14.01,2013-12-19 14:34:00,
2013-12-19 09:39:00,41.4,41.4,29.80,ENE,76,0.0,0.0,100,0.00,,,0.00,VWS V14.01,2013-12-19 14:39:00,
2013-12-19 09:40:00,41.4,41.4,29.80,ENE,76,0.0,0.0,100,0.00,,,0.00,VWS V14.01,2013-12-19 14:40:00,
2013-12-19 09:44:00,44.0,44.0,29.80,ENE,76,0.0,0.0,100,0.00,,,0.00,VWS V14.01,2013-12-19 14:44:00,
2013-12-19 09:49:00,45.4,42.6,29.80,ENE,76,0.0,0.0,90,0.00,,,0.00,VWS V14.01,2013-12-19 14:49:00,
2013-12-19 09:50:00,45.4,42.6,29.80,ENE,76,0.0,0.0,90,0.00,,,0.00,VWS V14.01,2013-12-19 14:50:00,
2013-12-19 09:54:00,45.4,42.6,29.80,ENE,76,0.0,0.0,90,0.00,,,0.00,VWS V14.01,2013-12-19 14:54:00,
2013-12-19 09:59:00,47.6,37.0,29.80,ENE,76,0.0,0.0,67,0.00,,,0.00,VWS V14.01,2013-12-19 14:59:00,
2013-12-19 10:00:00,47.6,37.0,29.80,ENE,76,0.0,0.0,67,0.00,,,0.00,VWS V14.01,2013-12-19 15:00:00,
2013-12-19 10:04:00,47.6,37.0,29.80,ENE,76,0.0,0.0,67,0.00,,,0.00,VWS V14.01,2013-12-19 15:04:00,
2013-12-19 10:09:00,49.2,33.8,29.83,NE,42,0.0,2.2,55,0.00,,,0.00,VWS V14.01,2013-12-19 15:09:00,
2013-12-19 10:10:00,49.2,33.8,29.83,NE,42,0.0,2.2,55,0.00,,,0.00,VWS V14.01,2013-12-19 15:10:00,
2013-12-19 10:19:00,49.4,34.0,29.83,NNE,12,3.1,3.6,55,0.00,,,0.00,VWS V14.01,2013-12-19 15:19:00,
2013-12-19 10:20:00,49.4,34.0,29.83,NNE,12,3.1,3.6,55,0.00,,,0.00,VWS V14.01,2013-12-19 15:20:00,
2013-12-19 10:24:00,51.7,32.8,29.83,NNW,341,0.0,3.1,48,0.00,,,0.00,VWS V14.01,2013-12-19 15:24:00,
2013-12-19 10:29:00,51.9,33.0,29.83,North,5,0.0,3.1,48,0.00,,,0.00,VWS V14.01,2013-12-19 15:29:00,
2013-12-19 10:30:00,51.9,33.0,29.83,NNE,23,2.2,3.1,48,0.00,,,0.00,VWS V14.01,2013-12-19 15:30:00,
2013-12-19 10:34:00,53.3,33.1,29.83,North,353,3.1,3.1,46,0.00,,,0.00,VWS V14.01,2013-12-19 15:34:00,
2013-12-19 10:39:00,53.3,33.1,29.83,NE,38,3.6,5.4,46,0.00,,,0.00,VWS V14.01,2013-12-19 15:39:00,
2013-12-19 10:44:00,53.3,33.1,29.83,NE,34,3.1,3.6,46,0.00,,,0.00,VWS V14.01,2013-12-19 15:44:00,
2013-12-19 10:49:00,53.3,33.1,29.83,NNE,29,3.1,3.6,46,0.00,,,0.00,VWS V14.01,2013-12-19 15:49:00,
2013-12-19 10:50:00,54.6,30.2,29.83,NNE,29,3.1,3.6,39,0.00,,,0.00,VWS V14.01,2013-12-19 15:50:00,
2013-12-19 10:54:00,54.6,30.2,29.83,NNE,21,4.0,4.0,39,0.00,,,0.00,VWS V14.01,2013-12-19 15:54:00,
2013-12-19 10:59:00,54.9,30.5,29.83,NE,48,5.4,5.4,39,0.00,,,0.00,VWS V14.01,2013-12-19 15:59:00,
2013-12-19 11:00:00,54.9,30.5,29.83,NE,48,5.4,5.4,39,0.00,,,0.00,VWS V14.01,2013-12-19 16:00:00,
2013-12-19 11:09:00,55.1,30.7,29.83,NNE,33,7.2,7.2,39,0.00,,,0.00,VWS V14.01,2013-12-19 16:09:00,
2013-12-19 11:10:00,55.1,30.7,29.83,North,0,3.6,7.2,39,0.00,,,0.00,VWS V14.01,2013-12-19 16:10:00,
2013-12-19 11:14:00,55.1,30.7,29.83,NNE,18,4.9,5.4,39,0.00,,,0.00,VWS V14.01,2013-12-19 16:14:00,
2013-12-19 11:19:00,55.8,31.3,29.83,NE,43,4.9,5.4,39,0.00,,,0.00,VWS V14.01,2013-12-19 16:19:00,
2013-12-19 11:20:00,55.8,31.3,29.83,NE,43,4.9,5.4,39,0.00,,,0.00,VWS V14.01,2013-12-19 16:20:00,
2013-12-19 11:24:00,56.2,31.7,29.83,NE,49,4.0,4.9,39,0.00,,,0.00,VWS V14.01,2013-12-19 16:24:00,
2013-12-19 11:29:00,56.6,32.0,29.83,NE,39,2.7,4.9,39,0.00,,,0.00,VWS V14.01,2013-12-19 16:29:00,
2013-12-19 11:34:00,56.6,32.0,29.83,NNE,33,3.6,5.4,39,0.00,,,0.00,VWS V14.01,2013-12-19 16:34:00,
2013-12-19 11:39:00,57.3,32.6,29.83,NE,37,2.7,5.4,39,0.00,,,0.00,VWS V14.01,2013-12-19 16:39:00,
2013-12-19 11:40:00,57.3,32.6,29.83,NE,37,2.7,5.4,39,0.00,,,0.00,VWS V14.01,2013-12-19 16:40:00,
2013-12-19 11:44:00,57.8,33.1,29.83,North,4,5.4,5.4,39,0.00,,,0.00,VWS V14.01,2013-12-19 16:44:00,
2013-12-19 11:49:00,57.8,33.1,29.83,North,350,4.9,5.8,39,0.00,,,0.00,VWS V14.01,2013-12-19 16:49:00,
2013-12-19 11:54:00,57.8,33.1,29.83,NE,55,2.7,4.9,39,0.00,,,0.00,VWS V14.01,2013-12-19 16:54:00,
2013-12-19 11:59:00,57.8,33.1,29.83,NE,46,5.4,5.4,39,0.00,,,0.00,VWS V14.01,2013-12-19 16:59:00,
2013-12-19 12:00:00,57.8,33.1,29.83,NE,46,5.4,5.4,39,0.00,,,0.00,VWS V14.01,2013-12-19 17:00:00,
2013-12-19 12:04:00,57.8,33.1,29.83,NNE,32,6.3,6.3,39,0.00,,,0.00,VWS V14.01,2013-12-19 17:04:00,
2013-12-19 12:09:00,58.4,33.6,29.83,NW,305,2.7,6.3,39,0.00,,,0.00,VWS V14.01,2013-12-19 17:09:00,
2013-12-19 12:14:00,58.4,33.6,29.83,NNE,25,3.6,3.6,39,0.00,,,0.00,VWS V14.01,2013-12-19 17:14:00,
2013-12-19 12:19:00,58.9,34.1,29.83,West,267,3.1,4.0,39,0.00,,,0.00,VWS V14.01,2013-12-19 17:19:00,
2013-12-19 12:20:00,58.9,34.1,29.83,West,267,3.1,4.0,39,0.00,,,0.00,VWS V14.01,2013-12-19 17:20:00,
2013-12-19 12:29:00,58.9,34.1,29.83,NNE,16,3.1,4.0,39,0.00,,,0.00,VWS V14.01,2013-12-19 17:29:00,
2013-12-19 12:34:00,60.5,34.0,29.83,NE,38,0.0,4.9,37,0.00,,,0.00,VWS V14.01,2013-12-19 17:34:00,
2013-12-19 12:39:00,60.5,34.0,29.83,North,2,4.9,4.9,37,0.00,,,0.00,VWS V14.01,2013-12-19 17:39:00,
2013-12-19 12:40:00,60.5,34.0,29.83,North,2,4.9,4.9,37,0.00,,,0.00,VWS V14.01,2013-12-19 17:40:00,
2013-12-19 12:44:00,60.2,33.7,29.80,NNE,24,6.3,6.3,37,0.00,,,0.00,VWS V14.01,2013-12-19 17:44:00,
2013-12-19 12:49:00,60.2,33.7,29.80,ENE,69,3.1,6.3,37,0.00,,,0.00,VWS V14.01,2013-12-19 17:49:00,
2013-12-19 12:50:00,60.2,33.7,29.80,ENE,69,3.1,6.3,37,0.00,,,0.00,VWS V14.01,2013-12-19 17:50:00,
2013-12-19 12:54:00,60.2,33.7,29.80,NE,43,2.7,3.1,37,0.00,,,0.00,VWS V14.01,2013-12-19 17:54:00,
2013-12-19 12:59:00,60.3,33.8,29.80,ENE,58,3.1,5.4,37,0.00,,,0.00,VWS V14.01,2013-12-19 17:59:00,
2013-12-19 13:00:00,60.3,33.8,29.80,ENE,58,3.1,5.4,37,0.00,,,0.00,VWS V14.01,2013-12-19 18:00:00,
2013-12-19 13:04:00,60.3,33.8,29.80,ENE,58,3.1,3.1,37,0.00,,,0.00,VWS V14.01,2013-12-19 18:04:00,
2013-12-19 13:10:00,60.7,34.2,29.80,NE,39,3.6,5.8,37,0.00,,,0.00,VWS V14.01,2013-12-19 18:10:00,
2013-12-19 13:15:00,60.7,34.2,29.80,NNE,16,3.6,4.0,37,0.00,,,0.00,VWS V14.01,2013-12-19 18:15:00,
2013-12-19 13:20:00,61.1,34.5,29.80,NE,52,5.8,5.8,37,0.00,,,0.00,VWS V14.01,2013-12-19 18:20:00,
2013-12-19 13:25:00,61.1,34.5,29.80,North,350,4.0,5.8,37,0.00,,,0.00,VWS V14.01,2013-12-19 18:25:00,
2013-12-19 13:30:00,61.2,34.6,29.80,North,357,4.0,5.8,37,0.00,,,0.00,VWS V14.01,2013-12-19 18:30:00,
2013-12-19 13:35:00,61.8,35.1,29.80,North,353,4.9,5.8,37,0.00,,,0.00,VWS V14.01,2013-12-19 18:35:00,
2013-12-19 13:40:00,62.0,35.3,29.80,NE,48,4.0,5.8,37,0.00,,,0.00,VWS V14.01,2013-12-19 18:40:00,
2013-12-19 13:45:00,62.0,35.3,29.80,West,275,2.7,4.0,37,0.00,,,0.00,VWS V14.01,2013-12-19 18:45:00,
2013-12-19 13:50:00,62.0,35.3,29.80,NNE,16,4.0,4.0,37,0.00,,,0.00,VWS V14.01,2013-12-19 18:50:00,
2013-12-19 13:55:00,62.3,35.6,29.80,NNE,16,4.0,4.0,37,0.00,,,0.00,VWS V14.01,2013-12-19 18:55:00,
2013-12-19 14:00:00,62.0,35.3,29.80,NNE,22,4.0,4.9,37,0.00,,,0.00,VWS V14.01,2013-12-19 19:00:00,
2013-12-19 14:05:00,62.0,35.3,29.80,ENE,68,5.4,5.4,37,0.00,,,0.00,VWS V14.01,2013-12-19 19:05:00,
2013-12-19 14:10:00,62.1,35.4,29.80,ENE,62,2.7,5.4,37,0.00,,,0.00,VWS V14.01,2013-12-19 19:10:00,
2013-12-19 14:15:00,62.1,35.4,29.80,NNE,18,3.6,5.4,37,0.00,,,0.00,VWS V14.01,2013-12-19 19:15:00,
2013-12-19 14:20:00,62.0,35.3,29.80,NE,47,4.0,5.4,37,0.00,,,0.00,VWS V14.01,2013-12-19 19:20:00,
2013-12-19 14:25:00,62.0,35.3,29.80,ENE,69,3.6,4.0,37,0.00,,,0.00,VWS V14.01,2013-12-19 19:25:00,
2013-12-19 14:30:00,62.3,35.6,29.77,NE,39,4.0,4.0,37,0.00,,,0.00,VWS V14.01,2013-12-19 19:30:00,
2013-12-19 14:35:00,62.3,35.6,29.77,NE,37,4.9,4.9,37,0.00,,,0.00,VWS V14.01,2013-12-19 19:35:00,
2013-12-19 14:40:00,62.3,35.6,29.77,NNE,30,2.7,4.9,37,0.00,,,0.00,VWS V14.01,2013-12-19 19:40:00,
2013-12-19 14:45:00,62.5,35.8,29.77,NNE,33,3.1,3.1,37,0.00,,,0.00,VWS V14.01,2013-12-19 19:45:00,
2013-12-19 14:50:00,62.5,35.8,29.77,NNE,22,3.6,3.6,37,0.00,,,0.00,VWS V14.01,2013-12-19 19:50:00,
2013-12-19 14:55:00,63.0,36.2,29.77,NNE,20,3.1,3.6,37,0.00,,,0.00,VWS V14.01,2013-12-19 19:55:00,
2013-12-19 15:00:00,63.0,36.2,29.77,NE,55,5.8,5.8,37,0.00,,,0.00,VWS V14.01,2013-12-19 20:00:00,
2013-12-19 15:05:00,63.0,36.2,29.77,ENE,74,5.8,5.8,37,0.00,,,0.00,VWS V14.01,2013-12-19 20:05:00,
2013-12-19 15:10:00,63.4,34.9,29.77,NE,46,6.3,6.3,34,0.00,,,0.00,VWS V14.01,2013-12-19 20:10:00,
2013-12-19 15:15:00,63.2,36.4,29.77,North,357,4.0,6.3,37,0.00,,,0.00,VWS V14.01,2013-12-19 20:15:00,
2013-12-19 15:20:00,63.6,35.1,29.77,North,353,3.6,3.6,34,0.00,,,0.00,VWS V14.01,2013-12-19 20:20:00,
2013-12-19 15:25:00,63.6,35.1,29.77,North,1,3.1,4.0,34,0.00,,,0.00,VWS V14.01,2013-12-19 20:25:00,
2013-12-19 15:30:00,63.6,35.1,29.77,North,1,3.1,4.0,34,0.00,,,0.00,VWS V14.01,2013-12-19 20:30:00,
2013-12-19 15:35:00,63.2,36.4,29.77,ENE,64,5.8,6.3,37,0.00,,,0.00,VWS V14.01,2013-12-19 20:35:00,
2013-12-19 15:40:00,63.4,34.9,29.77,North,7,2.2,6.3,34,0.00,,,0.00,VWS V14.01,2013-12-19 20:40:00,
2013-12-19 15:45:00,63.2,36.4,29.77,North,353,2.2,4.9,37,0.00,,,0.00,VWS V14.01,2013-12-19 20:45:00,
2013-12-19 15:50:00,63.2,36.4,29.77,North,357,0.0,4.9,37,0.00,,,0.00,VWS V14.01,2013-12-19 20:50:00,
2013-12-19 15:55:00,63.2,36.4,29.77,North,357,0.0,0.0,37,0.00,,,0.00,VWS V14.01,2013-12-19 20:55:00,
2013-12-19 16:00:00,63.2,36.4,29.77,NNE,20,3.6,4.9,37,0.00,,,0.00,VWS V14.01,2013-12-19 21:00:00,
2013-12-19 16:05:00,63.0,36.2,29.77,NNE,32,4.0,4.0,37,0.00,,,0.00,VWS V14.01,2013-12-19 21:05:00,
2013-12-19 16:10:00,63.0,36.2,29.77,NNW,348,2.7,4.0,37,0.00,,,0.00,VWS V14.01,2013-12-19 21:10:00,
2013-12-19 16:15:00,63.0,36.2,29.77,NNE,31,3.1,3.6,37,0.00,,,0.00,VWS V14.01,2013-12-19 21:15:00,
2013-12-19 16:20:00,63.0,36.2,29.77,NNE,15,2.7,3.6,37,0.00,,,0.00,VWS V14.01,2013-12-19 21:20:00,
2013-12-19 16:25:00,63.2,36.4,29.80,NE,45,3.1,3.1,37,0.00,,,0.00,VWS V14.01,2013-12-19 21:25:00,
2013-12-19 16:30:00,63.2,36.4,29.80,North,353,2.7,2.7,37,0.00,,,0.00,VWS V14.01,2013-12-19 21:30:00,
2013-12-19 16:35:00,62.1,35.4,29.80,NNE,26,2.7,2.7,37,0.00,,,0.00,VWS V14.01,2013-12-19 21:35:00,
2013-12-19 16:40:00,61.8,35.1,29.80,NNE,26,0.0,2.7,37,0.00,,,0.00,VWS V14.01,2013-12-19 21:40:00,
2013-12-19 16:45:00,61.8,35.1,29.80,NNE,26,0.0,0.0,37,0.00,,,0.00,VWS V14.01,2013-12-19 21:45:00,
2013-12-19 16:50:00,61.2,34.6,29.80,NNE,26,0.0,0.0,37,0.00,,,0.00,VWS V14.01,2013-12-19 21:50:00,
2013-12-19 16:55:00,61.2,34.6,29.80,NNE,26,0.0,0.0,37,0.00,,,0.00,VWS V14.01,2013-12-19 21:55:00,
2013-12-19 17:00:00,61.2,34.6,29.80,NNE,26,0.0,0.0,37,0.00,,,0.00,VWS V14.01,2013-12-19 22:00:00,
2013-12-19 17:05:00,60.3,33.8,29.80,NNE,26,0.0,0.0,37,0.00,,,0.00,VWS V14.01,2013-12-19 22:05:00,
2013-12-19 17:10:00,60.3,33.8,29.80,NNE,26,0.0,0.0,37,0.00,,,0.00,VWS V14.01,2013-12-19 22:10:00,
2013-12-19 17:15:00,57.8,33.1,29.80,NNE,26,0.0,0.0,39,0.00,,,0.00,VWS V14.01,2013-12-19 22:15:00,
2013-12-19 17:20:00,56.4,31.8,29.80,NNE,26,0.0,0.0,39,0.00,,,0.00,VWS V14.01,2013-12-19 22:20:00,
2013-12-19 17:25:00,56.4,31.8,29.80,NNE,26,0.0,0.0,39,0.00,,,0.00,VWS V14.01,2013-12-19 22:25:00,
2013-12-19 17:30:00,53.3,30.5,29.80,NNE,26,0.0,0.0,41,0.00,,,0.00,VWS V14.01,2013-12-19 22:30:00,
2013-12-19 17:35:00,51.9,33.0,29.80,NNE,26,0.0,0.0,48,0.00,,,0.00,VWS V14.01,2013-12-19 22:35:00,
2013-12-19 17:40:00,51.9,33.0,29.80,NNE,26,0.0,0.0,48,0.00,,,0.00,VWS V14.01,2013-12-19 22:40:00,
2013-12-19 17:45:00,50.1,31.3,29.80,NNE,26,0.0,0.0,48,0.00,,,0.00,VWS V14.01,2013-12-19 22:45:00,
2013-12-19 17:50:00,49.4,30.7,29.80,NNE,26,0.0,0.0,48,0.00,,,0.00,VWS V14.01,2013-12-19 22:50:00,
2013-12-19 17:55:00,48.5,33.1,29.80,NNE,26,0.0,0.0,55,0.00,,,0.00,VWS V14.01,2013-12-19 22:55:00,
2013-12-19 18:00:00,47.9,34.6,29.80,NNE,26,0.0,0.0,60,0.00,,,0.00,VWS V14.01,2013-12-19 23:00:00,
2013-12-19 18:05:00,47.9,34.6,29.80,NNE,26,0.0,0.0,60,0.00,,,0.00,VWS V14.01,2013-12-19 23:05:00,
2013-12-19 18:10:00,46.5,34.2,29.80,NNE,26,0.0,0.0,62,0.00,,,0.00,VWS V14.01,2013-12-19 23:10:00,
2013-12-19 18:15:00,46.5,34.2,29.80,NNE,26,0.0,0.0,62,0.00,,,0.00,VWS V14.01,2013-12-19 23:15:00,
2013-12-19 18:20:00,45.6,34.3,29.80,NNE,26,0.0,0.0,64,0.00,,,0.00,VWS V14.01,2013-12-19 23:20:00,
2013-12-19 18:25:00,45.2,34.8,29.80,NNE,26,0.0,0.0,67,0.00,,,0.00,VWS V14.01,2013-12-19 23:25:00,
2013-12-19 18:30:00,44.7,34.3,29.80,NNE,27,0.0,0.0,67,0.00,,,0.00,VWS V14.01,2013-12-19 23:30:00,
2013-12-19 18:35:00,44.7,34.3,29.80,NNE,26,0.0,0.0,67,0.00,,,0.00,VWS V14.01,2013-12-19 23:35:00,
2013-12-19 18:40:00,43.6,34.9,29.80,NNE,26,0.0,0.0,71,0.00,,,0.00,VWS V14.01,2013-12-19 23:40:00,
2013-12-19 18:45:00,42.9,35.8,29.80,NNE,26,0.0,0.0,76,0.00,,,0.00,VWS V14.01,2013-12-19 23:45:00,
2013-12-19 18:50:00,42.7,35.6,29.80,NNE,26,0.0,0.0,76,0.00,,,0.00,VWS V14.01,2013-12-19 23:50:00,
2013-12-19 18:55:00,42.7,35.6,29.80,NNE,26,0.0,0.0,76,0.00,,,0.00,VWS V14.01,2013-12-19 23:55:00,
2013-12-19 19:00:00,42.7,35.6,29.80,NNE,26,0.0,0.0,76,0.00,,,0.00,VWS V14.01,2013-12-20 00:00:00,
2013-12-19 19:05:00,41.3,37.8,29.80,NNE,26,0.0,0.0,87,0.00,,,0.00,VWS V14.01,2013-12-20 00:05:00,
2013-12-19 19:10:00,40.7,37.3,29.80,NNE,26,0.0,0.0,87,0.00,,,0.00,VWS V14.01,2013-12-20 00:10:00,
2013-12-19 19:15:00,40.7,37.3,29.80,NNE,26,0.0,0.0,87,0.00,,,0.00,VWS V14.01,2013-12-20 00:15:00,
2013-12-19 19:20:00,40.7,37.3,29.77,NNE,27,0.0,0.0,87,0.00,,,0.00,VWS V14.01,2013-12-20 00:20:00,
2013-12-19 19:25:00,40.7,37.3,29.77,NNE,26,0.0,0.0,87,0.00,,,0.00,VWS V14.01,2013-12-20 00:25:00,
2013-12-19 19:30:00,39.5,37.3,29.77,NNE,26,0.0,0.0,92,0.00,,,0.00,VWS V14.01,2013-12-20 00:30:00,
2013-12-19 19:35:00,39.3,37.8,29.77,NNE,26,0.0,0.0,94,0.00,,,0.00,VWS V14.01,2013-12-20 00:35:00,
2013-12-19 19:40:00,38.9,37.4,29.77,NNE,26,0.0,0.0,94,0.00,,,0.00,VWS V14.01,2013-12-20 00:40:00,
2013-12-19 19:45:00,38.9,37.4,29.77,NNE,26,0.0,0.0,94,0.00,,,0.00,VWS V14.01,2013-12-20 00:45:00,
2013-12-19 19:50:00,38.9,37.4,29.77,NNE,27,0.0,0.0,94,0.00,,,0.00,VWS V14.01,2013-12-20 00:50:00,
2013-12-19 19:55:00,38.7,38.7,29.77,NNE,26,0.0,0.0,100,0.00,,,0.00,VWS V14.01,2013-12-20 00:55:00,
2013-12-19 20:00:00,38.7,38.7,29.77,NNE,26,0.0,0.0,100,0.00,,,0.00,VWS V14.01,2013-12-20 01:00:00,
2013-12-19 20:05:00,38.4,38.4,29.77,NNE,26,0.0,0.0,100,0.00,,,0.00,VWS V14.01,2013-12-20 01:05:00,
2013-12-19 20:10:00,38.4,38.4,29.77,NNE,26,0.0,0.0,100,0.00,,,0.00,VWS V14.01,2013-12-20 01:10:00,
2013-12-19 20:15:00,38.4,38.4,29.77,NNE,27,0.0,0.0,100,0.00,,,0.00,VWS V14.01,2013-12-20 01:15:00,
2013-12-19 20:20:00,37.7,37.7,29.77,NNE,26,0.0,0.0,100,0.00,,,0.00,VWS V14.01,2013-12-20 01:20:00,
2013-12-19 20:25:00,37.7,37.7,29.77,NNE,26,0.0,0.0,100,0.00,,,0.00,VWS V14.01,2013-12-20 01:25:00,
2013-12-19 20:30:00,37.3,37.3,29.77,NNE,26,0.0,0.0,100,0.00,,,0.00,VWS V14.01,2013-12-20 01:30:00,
2013-12-19 20:35:00,37.3,37.3,29.77,NNE,26,0.0,0.0,100,0.00,,,0.00,VWS V14.01,2013-12-20 01:35:00,
2013-12-19 20:40:00,37.3,37.3,29.77,NNE,26,0.0,0.0,100,0.00,,,0.00,VWS V14.01,2013-12-20 01:40:00,
2013-12-19 20:45:00,37.1,37.1,29.77,NNE,26,0.0,0.0,100,0.00,,,0.00,VWS V14.01,2013-12-20 01:45:00,
2013-12-19 20:50:00,37.1,37.1,29.77,NNE,26,0.0,0.0,100,0.00,,,0.00,VWS V14.01,2013-12-20 01:50:00,
2013-12-19 20:55:00,36.9,36.9,29.77,NNE,27,0.0,0.0,100,0.00,,,0.00,VWS V14.01,2013-12-20 01:55:00,
2013-12-19 21:00:00,36.9,36.9,29.77,NNE,26,0.0,0.0,100,0.00,,,0.00,VWS V14.01,2013-12-20 02:00:00,
2013-12-19 21:05:00,37.1,37.1,29.77,NNE,26,0.0,0.0,100,0.00,,,0.00,VWS V14.01,2013-12-20 02:05:00,
2013-12-19 21:10:00,37.1,37.1,29.77,NNE,26,0.0,0.0,100,0.00,,,0.00,VWS V14.01,2013-12-20 02:10:00,
2013-12-19 21:16:00,37.5,37.5,29.77,NNE,26,0.0,0.0,100,0.00,,,0.00,VWS V14.01,2013-12-20 02:16:00,
2013-12-19 21:20:00,37.5,37.5,29.74,NNE,26,0.0,0.0,100,0.00,,,0.00,VWS V14.01,2013-12-20 02:20:00,
2013-12-19 21:21:00,37.5,37.5,29.74,NNE,26,0.0,0.0,100,0.00,,,0.00,VWS V14.01,2013-12-20 02:21:00,
2013-12-19 21:26:00,37.5,37.5,29.74,NNE,26,0.0,0.0,100,0.00,,,0.00,VWS V14.01,2013-12-20 02:26:00,
2013-12-19 21:30:00,37.7,37.7,29.74,NNE,26,0.0,0.0,100,0.00,,,0.00,VWS V14.01,2013-12-20 02:30:00,
2013-12-19 21:31:00,37.7,37.7,29.74,NNE,26,0.0,0.0,100,0.00,,,0.00,VWS V14.01,2013-12-20 02:31:00,
2013-12-19 21:36:00,37.7,37.7,29.74,NNE,27,0.0,0.0,100,0.00,,,0.00,VWS V14.01,2013-12-20 02:36:00,
2013-12-19 21:40:00,37.7,37.7,29.77,NNE,27,0.0,0.0,100,0.00,,,0.00,VWS V14.01,2013-12-20 02:40:00,
2013-12-19 21:41:00,37.7,37.7,29.77,NNE,27,0.0,0.0,100,0.00,,,0.00,VWS V14.01,2013-12-20 02:41:00,
2013-12-19 21:46:00,37.7,37.7,29.77,NNE,26,0.0,0.0,100,0.00,,,0.00,VWS V14.01,2013-12-20 02:46:00,
2013-12-19 21:50:00,37.8,37.8,29.77,NNE,26,0.0,0.0,100,0.00,,,0.00,VWS V14.01,2013-12-20 02:50:00,
2013-12-19 21:51:00,37.8,37.8,29.74,NNE,26,0.0,0.0,100,0.00,,,0.00,VWS V14.01,2013-12-20 02:51:00,
2013-12-19 21:56:00,37.7,37.7,29.74,NNE,26,0.0,0.0,100,0.00,,,0.00,VWS V14.01,2013-12-20 02:56:00,
2013-12-19 22:00:00,37.7,37.7,29.74,NNE,26,0.0,0.0,100,0.00,,,0.00,VWS V14.01,2013-12-20 03:00:00,
2013-12-19 22:01:00,37.7,37.7,29.74,NNE,26,0.0,0.0,100,0.00,,,0.00,VWS V14.01,2013-12-20 03:01:00,
2013-12-19 22:06:00,37.7,37.7,29.74,NNE,26,0.0,0.0,100,0.00,,,0.00,VWS V14.01,2013-12-20 03:06:00,
2013-12-19 22:10:00,37.1,37.1,29.74,NNE,26,0.0,0.0,100,0.00,,,0.00,VWS V14.01,2013-12-20 03:10:00,
2013-12-19 22:11:00,37.1,37.1,29.74,NNE,27,0.0,0.0,100,0.00,,,0.00,VWS V14.01,2013-12-20 03:11:00,
2013-12-19 22:16:00,37.1,37.1,29.74,NNE,26,0.0,0.0,100,0.00,,,0.00,VWS V14.01,2013-12-20 03:16:00,
2013-12-19 22:21:00,37.1,37.1,29.74,NNE,26,0.0,0.0,100,0.00,,,0.00,VWS V14.01,2013-12-20 03:21:00,
2013-12-19 22:26:00,37.1,37.1,29.77,NNE,27,0.0,0.0,100,0.00,,,0.00,VWS V14.01,2013-12-20 03:26:00,
2013-12-19 22:31:00,38.2,38.2,29.77,NNE,27,0.0,0.0,100,0.00,,,0.00,VWS V14.01,2013-12-20 03:31:00,
2013-12-19 22:36:00,38.2,38.2,29.77,NNE,27,0.0,0.0,100,0.00,,,0.00,VWS V14.01,2013-12-20 03:36:00,
2013-12-19 22:40:00,37.7,37.7,29.74,NNE,26,0.0,0.0,100,0.00,,,0.00,VWS V14.01,2013-12-20 03:40:00,
2013-12-19 22:46:00,37.1,37.1,29.74,NNE,27,0.0,0.0,100,0.00,,,0.00,VWS V14.01,2013-12-20 03:46:00,
2013-12-19 22:50:00,37.1,37.1,29.74,NNE,27,0.0,0.0,100,0.00,,,0.00,VWS V14.01,2013-12-20 03:50:00,
2013-12-19 22:51:00,37.1,37.1,29.74,NNE,26,0.0,0.0,100,0.00,,,0.00,VWS V14.01,2013-12-20 03:51:00,
2013-12-19 22:56:00,36.9,36.9,29.74,NNE,26,0.0,0.0,100,0.00,,,0.00,VWS V14.01,2013-12-20 03:56:00,
2013-12-19 23:00:00,36.9,36.9,29.74,NNE,26,0.0,0.0,100,0.00,,,0.00,VWS V14.01,2013-12-20 04:00:00,
2013-12-19 23:01:00,36.9,36.9,29.74,NNE,26,0.0,0.0,100,0.00,,,0.00,VWS V14.01,2013-12-20 04:01:00,
2013-12-19 23:06:00,36.9,36.9,29.74,NNE,26,0.0,0.0,100,0.00,,,0.00,VWS V14.01,2013-12-20 04:06:00,
2013-12-19 23:10:00,36.9,36.9,29.74,NNE,27,0.0,0.0,100,0.00,,,0.00,VWS V14.01,2013-12-20 04:10:00,
2013-12-19 23:11:00,36.9,36.9,29.74,NNE,27,0.0,0.0,100,0.00,,,0.00,VWS V14.01,2013-12-20 04:11:00,
2013-12-19 23:16:00,36.9,36.9,29.74,NNE,27,0.0,0.0,100,0.00,,,0.00,VWS V14.01,2013-12-20 04:16:00,
2013-12-19 23:20:00,36.9,36.9,29.74,NNE,26,0.0,0.0,100,0.00,,,0.00,VWS V14.01,2013-12-20 04:20:00,
2013-12-19 23:21:00,37.7,37.7,29.74,NNE,26,0.0,0.0,100,0.00,,,0.00,VWS V14.01,2013-12-20 04:21:00,
2013-12-19 23:26:00,37.7,37.7,29.74,NNE,26,0.0,0.0,100,0.00,,,0.00,VWS V14.01,2013-12-20 04:26:00,
2013-12-19 23:30:00,37.7,37.7,29.74,NNE,26,0.0,0.0,100,0.00,,,0.00,VWS V14.01,2013-12-20 04:30:00,
2013-12-19 23:31:00,37.7,37.7,29.74,NNE,26,0.0,0.0,100,0.00,,,0.00,VWS V14.01,2013-12-20 04:31:00,
2013-12-19 23:36:00,37.7,37.7,29.74,NNE,26,0.0,0.0,100,0.00,,,0.00,VWS V14.01,2013-12-20 04:36:00,
2013-12-19 23:40:00,37.7,37.7,29.74,NNE,26,0.0,0.0,100,0.00,,,0.00,VWS V14.01,2013-12-20 04:40:00,
2013-12-19 23:46:00,37.7,37.7,29.74,NNE,26,0.0,0.0,100,0.00,,,0.00,VWS V14.01,2013-12-20 04:46:00,
2013-12-19 23:50:00,37.8,37.8,29.74,NNE,26,0.0,0.0,100,0.00,,,0.00,VWS V14.01,2013-12-20 04:50:00,
2013-12-19 23:51:00,37.8,37.8,29.74,NNE,26,0.0,0.0,100,0.00,,,0.00,VWS V14.01,2013-12-20 04:51:00,
2013-12-19 23:56:00,37.8,37.8,29.74,NNE,26,0.0,0.0,100,0.00,,,0.00,VWS V14.01,2013-12-20 04:56:00,